Hanford, WA
on Wednesday, January 16, 2013

Wednesday
Previous Day Next Day
Daily Summary
 ActualAverage (KMWH)Record (KMWH)
Temperature
Mean Temperature °F 30°F  
Max Temperature 30°F 36°F 56°F (2011)
Min Temperature 15°F 24°F 3°F (1997)
Degree Days
Heating Degree Days 42 35  
Month to date heating degree days 579  
Since 1 July heating degree days 3166  
Cooling Degree Days 0 0  
Month to date cooling degree days 0  
Year to date cooling degree days 0  
Moisture
Dew Point 21°F   
Average Humidity 88    
Maximum Humidity 96    
Minimum Humidity 80    
Precipitation
Precipitation 0.00 in 0.03 in 0.34 in (1986)
Month to date precipitation 0.75  
Year to date precipitation 0.75  
Wind
Wind Speed 4 mph   
Max Wind Speed 7 mph   
Max Gust Speed mph   
Visibility 10 miles   
Events     

Key: T is trace of precipitation, MM is missing value
Source: NWS Daily Summary
Time(PST)TemperatureDew PointHumidity Pressure Visibility Wind DirectionWind SpeedGust SpeedPrecipitationEvents Conditions
12:50 AM 16.7°F 15.4°F 95% 30.61 in 15.0 miles West 1.2 mph - N/A   Clear
1:50 AM 15.4°F 14.0°F 94% 30.61 in 15.0 miles SSW 4.6 mph - N/A   Clear
2:50 AM 15.6°F 14.5°F 95% 30.61 in 15.0 miles ESE 4.6 mph - N/A   Clear
3:50 AM 15.3°F 14.0°F 95% 30.62 in 15.0 miles West 3.5 mph - N/A   Clear
4:50 AM 17.6°F 16.5°F 96% 30.63 in 10.0 miles WSW 3.5 mph - N/A   Overcast
5:50 AM 18.1°F 17.1°F 96% 30.63 in 10.0 miles SSW 3.5 mph - N/A   Mostly Cloudy
6:50 AM 19.2°F 18.1°F 96% 30.63 in 10.0 miles WNW 4.6 mph - N/A   Overcast
7:50 AM 22.6°F 21.4°F 95% 30.63 in 8.0 miles NW 4.6 mph - N/A   Overcast
8:50 AM 24.6°F 23.4°F 95% 30.63 in 6.0 miles WNW 6.9 mph - N/A   Overcast
9:50 AM 26.1°F 24.1°F 92% 30.68 in 6.0 miles NW 5.8 mph - N/A   Overcast
10:50 AM 28.4°F 24.4°F 85% 30.68 in 6.0 miles WNW 5.8 mph - N/A   Overcast
11:50 AM 28.9°F 24.3°F 83% 30.69 in 7.0 miles North 4.6 mph - N/A   Overcast
12:50 PM 29.5°F 24.1°F 80% 30.69 in 8.0 miles NE 3.5 mph - N/A   Overcast
1:50 PM 29.7°F 24.1°F 80% 30.68 in 8.0 miles NE 3.5 mph - N/A   Overcast
2:50 PM 29.8°F 24.3°F 80% 30.68 in 9.0 miles NE 3.5 mph - N/A   Overcast
3:50 PM 30.0°F 24.4°F 80% 30.62 in 9.0 miles NW 3.5 mph - N/A   Overcast
4:50 PM 29.8°F 24.4°F 80% 30.62 in 8.0 miles NE 2.3 mph - N/A   Overcast
5:50 PM 29.7°F 24.4°F 81% 30.61 in 8.0 miles South 2.3 mph - N/A   Overcast
6:50 PM 29.1°F 24.6°F 83% 30.61 in 8.0 miles South 4.6 mph - N/A   Overcast
10:50 PM 29.3°F 25.5°F 86% 30.62 in 10.0 miles WSW 2.3 mph - N/A   Overcast
11:50 PM 29.1°F 25.3°F 86% 30.62 in 10.0 miles South 2.3 mph - N/A   Overcast
Moon Phase
Jan. 16 Jan. 18 Jan. 26 Feb. 03 Feb. 10
Sunrise:07:37 AM (PST) Moon Rise:09:53 AM (PST)
Sunset:04:39 PM (PST) Moon Set:11:01 PM (PST)

Copyright © 2014 The Weather Underground, Inc.